Location: *
(43.2048°N, 0.1612°E)
Time: 17:34:50
(UTC+00:00)

ADEOS II - Pass Details

Date: 30 September 2023
Orbit: 798 x 798 km, 98.7° (Epoch: 05 December)

Event Time Altitude Azimuth Distance (km) Brightness Sun altitude
Rises 02:12:15 0° 14° (NNE) 3,316 5.9 -38.6°
Reaches altitude 10° 02:14:35 10° 15° (NNE) 2,382 5.1 -38.2°
Enters shadow 02:16:21 22° 16° (NNE) 1,698 4.2 -38.0°
